Terug naar catalogus

ARIANE 42P+ DEB

LostHEO
NORAD 34193·DEBRIS·🇫🇷 France

Gelanceerd Oct 28, 1992 vanaf Guiana Space Centre

Loading…

Volgende Passages (komende 24 uur)

TLE

VerouderdSource: Space-Track

Epoch: Jun 24, 2024, 01:34 UTC

1 34193U 92072Z   24176.06529847  .00000372  00000-0  81536-3 0  9999
2 34193   8.5632  61.6846 6516084 238.1465  42.3256  3.18973625251808

Volg ARIANE 42P+ DEB in realtime met AllMySat

Download on the App Store